Tabellarische Ansicht des 8.12.2012


Die einzelnen Werte des Tages

Uhrzeit Temperatur Luftdruck Luftfeuchte Wind Hi-Wind Taupunkt THW Index Wind Chill Heat Index Solar- strahlung Regen

00:00

-5.2 C

1010.4 hpa

82 %

1.6 km/h aus 116

4.8 km/h aus NE

-7.8 C

-5.3 C

-5.2 C

-5.3 C

0 W/m

0.00 mm

00:05

-5.2 C

1010.4 hpa

82 %

1.6 km/h aus 115

4.8 km/h aus NE

-7.8 C

-5.3 C

-5.2 C

-5.3 C

0 W/m

0.00 mm

00:10

-5.3 C

1010.4 hpa

82 %

0.0 km/h aus 117

3.2 km/h aus NE

-7.9 C

-5.4 C

-5.3 C

-5.4 C

0 W/m

0.00 mm

00:15

-5.4 C

1010.5 hpa

82 %

0.0 km/h aus 116

0.0 km/h aus ---

-8.0 C

-5.5 C

-5.4 C

-5.5 C

0 W/m

0.00 mm

00:20

-5.4 C

1010.5 hpa

82 %

0.0 km/h aus 116

0.0 km/h aus ---

-8.0 C

-5.6 C

-5.4 C

-5.6 C

0 W/m

0.00 mm

00:25

-5.6 C

1010.5 hpa

82 %

0.0 km/h aus 117

3.2 km/h aus NE

-8.1 C

-5.7 C

-5.6 C

-5.7 C

0 W/m

0.00 mm

00:30

-5.6 C

1010.7 hpa

82 %

0.0 km/h aus 117

0.0 km/h aus ---

-8.2 C

-5.7 C

-5.6 C

-5.7 C

0 W/m

0.00 mm

00:35

-5.7 C

1010.7 hpa

82 %

0.0 km/h aus 116

0.0 km/h aus ---

-8.3 C

-5.8 C

-5.7 C

-5.8 C

0 W/m

0.00 mm

00:40

-5.8 C

1010.7 hpa

82 %

0.0 km/h aus 117

0.0 km/h aus ---

-8.4 C

-5.9 C

-5.8 C

-5.9 C

0 W/m

0.00 mm

00:45

-5.9 C

1011.0 hpa

82 %

1.6 km/h aus 116

3.2 km/h aus NE

-8.5 C

-6.1 C

-5.9 C

-6.1 C

0 W/m

0.00 mm

00:50

-6.1 C

1011.0 hpa

82 %

1.6 km/h aus 116

4.8 km/h aus NE

-8.6 C

-6.2 C

-6.1 C

-6.2 C

0 W/m

0.00 mm

00:55

-6.2 C

1011.0 hpa

82 %

1.6 km/h aus 118

3.2 km/h aus NE

-8.7 C

-6.3 C

-6.2 C

-6.3 C

0 W/m

0.00 mm

01:00

-6.2 C

1011.1 hpa

82 %

1.6 km/h aus 116

3.2 km/h aus NE

-8.8 C

-6.3 C

-6.2 C

-6.3 C

0 W/m

0.00 mm

01:05

-6.3 C

1011.1 hpa

83 %

0.0 km/h aus 117

3.2 km/h aus NE

-8.7 C

-6.4 C

-6.3 C

-6.4 C

0 W/m

0.00 mm

01:10

-6.4 C

1011.1 hpa

82 %

1.6 km/h aus 117

3.2 km/h aus NE

-9.0 C

-6.5 C

-6.4 C

-6.5 C

0 W/m

0.00 mm

01:15

-6.4 C

1011.3 hpa

83 %

0.0 km/h aus 117

0.0 km/h aus ---

-8.9 C

-6.6 C

-6.4 C

-6.6 C

0 W/m

0.00 mm

01:20

-6.6 C

1011.3 hpa

83 %

0.0 km/h aus 117

0.0 km/h aus ---

-9.0 C

-6.7 C

-6.6 C

-6.7 C

0 W/m

0.00 mm

01:25

-6.6 C

1011.3 hpa

83 %

0.0 km/h aus 117

0.0 km/h aus ---

-9.0 C

-6.7 C

-6.6 C

-6.7 C

0 W/m

0.00 mm

01:30

-6.7 C

1011.5 hpa

83 %

0.0 km/h aus 117

0.0 km/h aus ---

-9.1 C

-6.8 C

-6.7 C

-6.8 C

0 W/m

0.00 mm

01:35

-6.8 C

1011.5 hpa

83 %

0.0 km/h aus 116

0.0 km/h aus ---

-9.2 C

-6.9 C

-6.8 C

-6.9 C

0 W/m

0.00 mm

01:40

-6.8 C

1011.5 hpa

83 %

0.0 km/h aus 117

1.6 km/h aus NE

-9.2 C

-6.9 C

-6.8 C

-6.9 C

0 W/m

0.00 mm

01:45

-6.8 C

1011.6 hpa

83 %

0.0 km/h aus 115

3.2 km/h aus NE

-9.2 C

-6.9 C

-6.8 C

-6.9 C

0 W/m

0.00 mm

01:50

-6.8 C

1011.6 hpa

83 %

0.0 km/h aus 117

0.0 km/h aus ---

-9.2 C

-6.9 C

-6.8 C

-6.9 C

0 W/m

0.00 mm

01:55

-6.8 C

1011.6 hpa

84 %

0.0 km/h aus 116

0.0 km/h aus ---

-9.1 C

-6.9 C

-6.8 C

-6.9 C

0 W/m

0.00 mm

02:00

-6.8 C

1011.7 hpa

84 %

0.0 km/h aus 118

0.0 km/h aus ---

-9.1 C

-6.9 C

-6.8 C

-6.9 C

0 W/m

0.00 mm

02:05

-6.8 C

1011.7 hpa

84 %

0.0 km/h aus 117

1.6 km/h aus NE

-9.1 C

-6.9 C

-6.8 C

-6.9 C

0 W/m

0.00 mm

02:10

-6.8 C

1011.7 hpa

84 %

0.0 km/h aus 115

1.6 km/h aus NE

-9.1 C

-6.9 C

-6.8 C

-6.9 C

0 W/m

0.00 mm

02:15

-6.8 C

1012.0 hpa

84 %

0.0 km/h aus 117

0.0 km/h aus ---

-9.1 C

-6.9 C

-6.8 C

-6.9 C

0 W/m

0.00 mm

02:20

-6.9 C

1012.0 hpa

84 %

0.0 km/h aus 117

3.2 km/h aus NE

-9.1 C

-7.0 C

-6.9 C

-7.0 C

0 W/m

0.00 mm

02:25

-6.9 C

1012.0 hpa

84 %

0.0 km/h aus 116

3.2 km/h aus NE

-9.2 C

-7.1 C

-6.9 C

-7.1 C

0 W/m

0.00 mm

02:30

-7.0 C

1012.1 hpa

84 %

0.0 km/h aus 116

0.0 km/h aus ---

-9.2 C

-7.1 C

-7.0 C

-7.1 C

0 W/m

0.00 mm

02:35

-7.1 C

1012.1 hpa

84 %

0.0 km/h aus 117

1.6 km/h aus NE

-9.3 C

-7.2 C

-7.1 C

-7.2 C

0 W/m

0.00 mm

02:40

-7.1 C

1012.1 hpa

84 %

0.0 km/h aus 117

0.0 km/h aus ---

-9.4 C

-7.2 C

-7.1 C

-7.2 C

0 W/m

0.00 mm

02:45

-7.1 C

1012.5 hpa

84 %

0.0 km/h aus 117

0.0 km/h aus ---

-9.4 C

-7.2 C

-7.1 C

-7.2 C

0 W/m

0.00 mm

02:50

-7.2 C

1012.5 hpa

84 %

0.0 km/h aus 117

0.0 km/h aus ---

-9.4 C

-7.3 C

-7.2 C

-7.3 C

0 W/m

0.00 mm

02:55

-7.2 C

1012.5 hpa

84 %

0.0 km/h aus 116

0.0 km/h aus ---

-9.5 C

-7.3 C

-7.2 C

-7.3 C

0 W/m

0.00 mm

03:00

-7.2 C

1012.6 hpa

84 %

0.0 km/h aus 116

0.0 km/h aus ---

-9.5 C

-7.3 C

-7.2 C

-7.3 C

0 W/m

0.00 mm

03:05

-7.3 C

1012.6 hpa

84 %

0.0 km/h aus 116

0.0 km/h aus ---

-9.5 C

-7.4 C

-7.3 C

-7.4 C

0 W/m

0.00 mm

03:10

-7.3 C

1012.6 hpa

84 %

0.0 km/h aus 115

0.0 km/h aus ---

-9.6 C

-7.4 C

-7.3 C

-7.4 C

0 W/m

0.00 mm

03:15

-7.4 C

1012.9 hpa

84 %

0.0 km/h aus 116

0.0 km/h aus ---

-9.7 C

-7.6 C

-7.4 C

-7.6 C

0 W/m

0.00 mm

03:20

-7.5 C

1012.9 hpa

85 %

0.0 km/h aus 117

0.0 km/h aus ---

-9.6 C

-7.6 C

-7.5 C

-7.6 C

0 W/m

0.00 mm

03:25

-7.6 C

1012.9 hpa

85 %

0.0 km/h aus 116

0.0 km/h aus ---

-9.6 C

-7.7 C

-7.6 C

-7.7 C

0 W/m

0.00 mm

03:30

-7.6 C

1013.2 hpa

85 %

0.0 km/h aus 116

0.0 km/h aus ---

-9.7 C

-7.7 C

-7.6 C

-7.7 C

0 W/m

0.00 mm

03:35

-7.7 C

1013.2 hpa

85 %

0.0 km/h aus 116

1.6 km/h aus NE

-9.8 C

-7.8 C

-7.7 C

-7.8 C

0 W/m

0.00 mm

03:40

-7.7 C

1013.2 hpa

85 %

0.0 km/h aus 116

0.0 km/h aus ---

-9.8 C

-7.8 C

-7.7 C

-7.8 C

0 W/m

0.00 mm

03:45

-7.8 C

1013.6 hpa

85 %

0.0 km/h aus 116

1.6 km/h aus NE

-9.9 C

-7.9 C

-7.8 C

-7.9 C

0 W/m

0.00 mm

03:50

-7.8 C

1013.6 hpa

85 %

0.0 km/h aus 116

3.2 km/h aus NE

-9.9 C

-7.9 C

-7.8 C

-7.9 C

0 W/m

0.00 mm

03:55

-7.8 C

1013.6 hpa

85 %

0.0 km/h aus 117

0.0 km/h aus ---

-9.9 C

-7.9 C

-7.8 C

-7.9 C

0 W/m

0.00 mm

04:00

-7.8 C

1013.7 hpa

85 %

0.0 km/h aus 116

0.0 km/h aus ---

-9.9 C

-7.9 C

-7.8 C

-7.9 C

0 W/m

0.00 mm

04:05

-7.9 C

1013.7 hpa

85 %

0.0 km/h aus 116

0.0 km/h aus ---

-10.0 C

-8.0 C

-7.9 C

-8.0 C

0 W/m

0.00 mm

04:10

-7.9 C

1013.7 hpa

85 %

0.0 km/h aus 116

0.0 km/h aus ---

-10.0 C

-8.1 C

-7.9 C

-8.1 C

0 W/m

0.00 mm

04:15

-7.9 C

1014.2 hpa

85 %

0.0 km/h aus 118

0.0 km/h aus ---

-10.0 C

-8.1 C

-7.9 C

-8.1 C

0 W/m

0.00 mm

04:20

-8.0 C

1014.2 hpa

85 %

0.0 km/h aus 117

0.0 km/h aus ---

-10.1 C

-8.1 C

-8.0 C

-8.1 C

0 W/m

0.00 mm

04:25

-8.0 C

1014.2 hpa

85 %

0.0 km/h aus 117

3.2 km/h aus NE

-10.1 C

-8.1 C

-8.0 C

-8.1 C

0 W/m

0.00 mm

04:30

-8.1 C

1014.2 hpa

85 %

1.6 km/h aus 116

3.2 km/h aus NE

-10.1 C

-8.2 C

-8.1 C

-8.2 C

0 W/m

0.00 mm

04:35

-8.1 C

1014.2 hpa

85 %

0.0 km/h aus 117

0.0 km/h aus ---

-10.2 C

-8.2 C

-8.1 C

-8.2 C

0 W/m

0.00 mm

04:40

-8.2 C

1014.2 hpa

85 %

0.0 km/h aus 117

0.0 km/h aus ---

-10.2 C

-8.2 C

-8.2 C

-8.2 C

0 W/m

0.00 mm

04:45

-8.2 C

1014.4 hpa

85 %

0.0 km/h aus 117

0.0 km/h aus ---

-10.2 C

-8.2 C

-8.2 C

-8.2 C

0 W/m

0.00 mm

04:50

-8.2 C

1014.4 hpa

85 %

0.0 km/h aus 116

0.0 km/h aus ---

-10.3 C

-8.3 C

-8.2 C

-8.3 C

0 W/m

0.00 mm

04:55

-8.2 C

1014.4 hpa

85 %

0.0 km/h aus 116

0.0 km/h aus ---

-10.3 C

-8.3 C

-8.2 C

-8.3 C

0 W/m

0.00 mm

05:00

-8.3 C

1014.7 hpa

85 %

0.0 km/h aus 117

0.0 km/h aus ---

-10.4 C

-8.3 C

-8.3 C

-8.3 C

0 W/m

0.00 mm

05:05

-8.3 C

1014.7 hpa

85 %

0.0 km/h aus 117

0.0 km/h aus ---

-10.4 C

-8.3 C

-8.3 C

-8.3 C

0 W/m

0.00 mm

05:10

-8.3 C

1014.7 hpa

85 %

0.0 km/h aus 117

0.0 km/h aus ---

-10.4 C

-8.3 C

-8.3 C

-8.3 C

0 W/m

0.00 mm

05:15

-8.3 C

1014.6 hpa

86 %

0.0 km/h aus 116

1.6 km/h aus NE

-10.3 C

-8.4 C

-8.3 C

-8.4 C

0 W/m

0.00 mm

05:20

-8.3 C

1014.6 hpa

85 %

0.0 km/h aus 118

1.6 km/h aus NE

-10.4 C

-8.4 C

-8.3 C

-8.4 C

0 W/m

0.00 mm

05:25

-8.3 C

1014.6 hpa

85 %

0.0 km/h aus 116

1.6 km/h aus NE

-10.4 C

-8.4 C

-8.3 C

-8.4 C

0 W/m

0.00 mm

05:30

-8.4 C

1014.8 hpa

86 %

0.0 km/h aus 117

1.6 km/h aus NE

-10.3 C

-8.4 C

-8.4 C

-8.4 C

0 W/m

0.00 mm

05:35

-8.4 C

1014.8 hpa

86 %

0.0 km/h aus 117

1.6 km/h aus NE

-10.3 C

-8.4 C

-8.4 C

-8.4 C

0 W/m

0.00 mm

05:40

-8.4 C

1014.8 hpa

86 %

0.0 km/h aus 117

1.6 km/h aus NE

-10.3 C

-8.4 C

-8.4 C

-8.4 C

0 W/m

0.00 mm

05:45

-8.4 C

1015.0 hpa

86 %

0.0 km/h aus 116

1.6 km/h aus NE

-10.4 C

-8.5 C

-8.4 C

-8.5 C

0 W/m

0.00 mm

05:50

-8.4 C

1015.0 hpa

86 %

0.0 km/h aus 117

0.0 km/h aus ---

-10.4 C

-8.5 C

-8.4 C

-8.5 C

0 W/m

0.00 mm

05:55

-8.5 C

1015.0 hpa

86 %

0.0 km/h aus 117

1.6 km/h aus NE

-10.4 C

-8.6 C

-8.5 C

-8.6 C

0 W/m

0.00 mm

06:00

-8.6 C

1015.2 hpa

86 %

0.0 km/h aus 116

1.6 km/h aus NE

-10.5 C

-8.6 C

-8.6 C

-8.6 C

0 W/m

0.00 mm

06:05

-8.6 C

1015.2 hpa

86 %

0.0 km/h aus 116

1.6 km/h aus NE

-10.5 C

-8.6 C

-8.6 C

-8.6 C

0 W/m

0.00 mm

06:10

-8.6 C

1015.2 hpa

86 %

0.0 km/h aus 117

1.6 km/h aus NE

-10.5 C

-8.7 C

-8.6 C

-8.7 C

0 W/m

0.00 mm

06:15

-8.6 C

1015.3 hpa

86 %

0.0 km/h aus 117

3.2 km/h aus NE

-10.5 C

-8.7 C

-8.6 C

-8.7 C

0 W/m

0.00 mm

06:20

-8.7 C

1015.3 hpa

86 %

1.6 km/h aus 115

3.2 km/h aus NE

-10.6 C

-8.7 C

-8.7 C

-8.7 C

0 W/m

0.00 mm

06:25

-8.7 C

1015.3 hpa

86 %

0.0 km/h aus 117

0.0 km/h aus ---

-10.6 C

-8.7 C

-8.7 C

-8.7 C

0 W/m

0.00 mm

06:30

-8.7 C

1015.4 hpa

86 %

0.0 km/h aus 116

0.0 km/h aus ---

-10.6 C

-8.7 C

-8.7 C

-8.7 C

0 W/m

0.00 mm

06:35

-8.7 C

1015.4 hpa

86 %

0.0 km/h aus 117

1.6 km/h aus NE

-10.6 C

-8.7 C

-8.7 C

-8.7 C

0 W/m

0.00 mm

06:40

-8.6 C

1015.4 hpa

86 %

0.0 km/h aus 117

0.0 km/h aus ---

-10.5 C

-8.7 C

-8.6 C

-8.7 C

0 W/m

0.00 mm

06:45

-8.6 C

1015.8 hpa

86 %

0.0 km/h aus 115

0.0 km/h aus ---

-10.5 C

-8.7 C

-8.6 C

-8.7 C

0 W/m

0.00 mm

06:50

-8.6 C

1015.8 hpa

86 %

0.0 km/h aus 117

0.0 km/h aus ---

-10.5 C

-8.6 C

-8.6 C

-8.6 C

0 W/m

0.00 mm

06:55

-8.5 C

1015.8 hpa

86 %

0.0 km/h aus 116

0.0 km/h aus ---

-10.4 C

-8.6 C

-8.5 C

-8.6 C

0 W/m

0.00 mm

07:00

-8.5 C

1016.0 hpa

86 %

0.0 km/h aus 117

0.0 km/h aus ---

-10.4 C

-8.6 C

-8.5 C

-8.6 C

0 W/m

0.00 mm

07:05

-8.4 C

1016.0 hpa

87 %

0.0 km/h aus 116

0.0 km/h aus ---

-10.2 C

-8.5 C

-8.4 C

-8.5 C

0 W/m

0.00 mm

07:10

-8.3 C

1016.0 hpa

87 %

0.0 km/h aus 117

0.0 km/h aus ---

-10.1 C

-8.4 C

-8.3 C

-8.4 C

0 W/m

0.00 mm

07:15

-8.3 C

1016.3 hpa

87 %

0.0 km/h aus 116

1.6 km/h aus NE

-10.1 C

-8.3 C

-8.3 C

-8.3 C

0 W/m

0.00 mm

07:20

-8.2 C

1016.3 hpa

87 %

0.0 km/h aus 116

1.6 km/h aus NE

-10.0 C

-8.3 C

-8.2 C

-8.3 C

0 W/m

0.00 mm

07:25

-8.2 C

1016.3 hpa

87 %

0.0 km/h aus 117

0.0 km/h aus ---

-9.9 C

-8.2 C

-8.2 C

-8.2 C

0 W/m

0.00 mm

07:30

-8.1 C

1016.7 hpa

87 %

0.0 km/h aus 115

0.0 km/h aus ---

-9.9 C

-8.2 C

-8.1 C

-8.2 C

0 W/m

0.00 mm

07:35

-8.0 C

1016.7 hpa

87 %

0.0 km/h aus 117

0.0 km/h aus ---

-9.8 C

-8.1 C

-8.0 C

-8.1 C

0 W/m

0.00 mm

07:40

-7.9 C

1016.7 hpa

87 %

0.0 km/h aus 117

0.0 km/h aus ---

-9.7 C

-8.0 C

-7.9 C

-8.0 C

0 W/m

0.00 mm

07:45

-7.8 C

1016.8 hpa

87 %

0.0 km/h aus 117

0.0 km/h aus ---

-9.6 C

-7.9 C

-7.8 C

-7.9 C

0 W/m

0.00 mm

07:50

-7.8 C

1016.8 hpa

87 %

0.0 km/h aus 116

0.0 km/h aus ---

-9.6 C

-7.9 C

-7.8 C

-7.9 C

0 W/m

0.00 mm

07:55

-7.7 C

1016.8 hpa

88 %

0.0 km/h aus 117

0.0 km/h aus ---

-9.4 C

-7.8 C

-7.7 C

-7.8 C

0 W/m

0.00 mm

08:00

-7.7 C

1016.8 hpa

87 %

0.0 km/h aus 117

0.0 km/h aus ---

-9.5 C

-7.8 C

-7.7 C

-7.8 C

0 W/m

0.00 mm

08:05

-7.6 C

1016.8 hpa

88 %

0.0 km/h aus 117

0.0 km/h aus ---

-9.3 C

-7.7 C

-7.6 C

-7.7 C

0 W/m

0.00 mm

08:10

-7.6 C

1016.8 hpa

88 %

0.0 km/h aus 116

1.6 km/h aus NE

-9.2 C

-7.6 C

-7.6 C

-7.6 C

0 W/m

0.00 mm

08:15

-7.5 C

1017.0 hpa

88 %

0.0 km/h aus 117

1.6 km/h aus NE

-9.1 C

-7.6 C

-7.5 C

-7.6 C

0 W/m

0.00 mm

08:20

-7.4 C

1017.0 hpa

88 %

0.0 km/h aus 116

1.6 km/h aus NE

-9.1 C

-7.5 C

-7.4 C

-7.5 C

0 W/m

0.00 mm

08:25

-7.4 C

1017.0 hpa

88 %

0.0 km/h aus 117

0.0 km/h aus ---

-9.0 C

-7.4 C

-7.4 C

-7.4 C

0 W/m

0.00 mm

08:30

-7.3 C

1017.2 hpa

88 %

0.0 km/h aus 117

1.6 km/h aus NE

-9.0 C

-7.4 C

-7.3 C

-7.4 C

0 W/m

0.00 mm

08:35

-7.3 C

1017.2 hpa

88 %

0.0 km/h aus 117

1.6 km/h aus NE

-8.9 C

-7.3 C

-7.3 C

-7.3 C

0 W/m

0.00 mm

08:40

-7.2 C

1017.2 hpa

88 %

0.0 km/h aus 117

0.0 km/h aus ---

-8.9 C

-7.3 C

-7.2 C

-7.3 C

0 W/m

0.00 mm

08:45

-7.2 C

1017.2 hpa

88 %

0.0 km/h aus 116

1.6 km/h aus NE

-8.8 C

-7.2 C

-7.2 C

-7.2 C

0 W/m

0.00 mm

08:50

-7.1 C

1017.2 hpa

88 %

0.0 km/h aus 116

3.2 km/h aus NE

-8.8 C

-7.2 C

-7.1 C

-7.2 C

0 W/m

0.00 mm

08:55

-7.1 C

1017.2 hpa

88 %

0.0 km/h aus 117

1.6 km/h aus NE

-8.7 C

-7.1 C

-7.1 C

-7.1 C

0 W/m

0.00 mm

09:00

-7.0 C

1017.3 hpa

88 %

0.0 km/h aus 116

0.0 km/h aus ---

-8.7 C

-7.1 C

-7.0 C

-7.1 C

0 W/m

0.00 mm

09:05

-6.9 C

1017.3 hpa

88 %

0.0 km/h aus 115

0.0 km/h aus ---

-8.6 C

-7.0 C

-6.9 C

-7.0 C

0 W/m

0.00 mm

09:10

-6.8 C

1017.3 hpa

88 %

0.0 km/h aus 117

0.0 km/h aus ---

-8.5 C

-6.9 C

-6.8 C

-6.9 C

0 W/m

0.00 mm

09:15

-6.8 C

1017.6 hpa

89 %

0.0 km/h aus 117

1.6 km/h aus NE

-8.3 C

-6.9 C

-6.8 C

-6.9 C

0 W/m

0.00 mm

09:20

-6.8 C

1017.6 hpa

89 %

0.0 km/h aus 116

0.0 km/h aus ---

-8.3 C

-6.8 C

-6.8 C

-6.8 C

0 W/m

0.00 mm

09:25

-6.7 C

1017.6 hpa

89 %

0.0 km/h aus 115

3.2 km/h aus NE

-8.2 C

-6.7 C

-6.7 C

-6.7 C

0 W/m

0.00 mm

09:30

-6.6 C

1017.7 hpa

89 %

1.6 km/h aus 117

3.2 km/h aus NE

-8.1 C

-6.6 C

-6.6 C

-6.6 C

0 W/m

0.00 mm

09:35

-6.4 C

1017.7 hpa

89 %

0.0 km/h aus 117

3.2 km/h aus NE

-7.9 C

-6.4 C

-6.4 C

-6.4 C

0 W/m

0.00 mm

09:40

-6.2 C

1017.7 hpa

89 %

0.0 km/h aus 117

3.2 km/h aus NE

-7.7 C

-6.3 C

-6.2 C

-6.3 C

0 W/m

0.00 mm

09:45

-6.1 C

1017.9 hpa

89 %

0.0 km/h aus 117

3.2 km/h aus NE

-7.6 C

-6.1 C

-6.1 C

-6.1 C

0 W/m

0.00 mm

09:50

-5.9 C

1017.9 hpa

89 %

0.0 km/h aus 116

3.2 km/h aus NE

-7.5 C

-6.0 C

-5.9 C

-6.0 C

0 W/m

0.00 mm

09:55

-5.8 C

1017.9 hpa

89 %

1.6 km/h aus 116

4.8 km/h aus NE

-7.3 C

-5.8 C

-5.8 C

-5.8 C

0 W/m

0.00 mm

10:00

-5.6 C

1018.0 hpa

89 %

1.6 km/h aus 117

3.2 km/h aus NE

-7.1 C

-5.6 C

-5.6 C

-5.6 C

0 W/m

0.00 mm

10:05

-5.4 C

1018.0 hpa

90 %

1.6 km/h aus 117

4.8 km/h aus NE

-6.8 C

-5.4 C

-5.4 C

-5.4 C

0 W/m

0.00 mm

10:10

-5.2 C

1018.0 hpa

90 %

1.6 km/h aus 117

3.2 km/h aus NE

-6.6 C

-5.3 C

-5.2 C

-5.3 C

0 W/m

0.00 mm

10:15

-5.1 C

1018.1 hpa

90 %

1.6 km/h aus 116

4.8 km/h aus NE

-6.4 C

-5.1 C

-5.1 C

-5.1 C

0 W/m

0.00 mm

10:20

-4.9 C

1018.1 hpa

90 %

0.0 km/h aus 117

3.2 km/h aus ENE

-6.3 C

-5.0 C

-4.9 C

-5.0 C

0 W/m

0.00 mm

10:25

-4.8 C

1018.1 hpa

89 %

1.6 km/h aus 117

4.8 km/h aus ENE

-6.4 C

-4.9 C

-4.8 C

-4.9 C

0 W/m

0.00 mm

10:30

-4.8 C

1018.4 hpa

90 %

1.6 km/h aus 117

3.2 km/h aus ENE

-6.2 C

-4.8 C

-4.8 C

-4.8 C

0 W/m

0.00 mm

10:35

-4.7 C

1018.4 hpa

90 %

0.0 km/h aus 115

1.6 km/h aus ENE

-6.1 C

-4.8 C

-4.7 C

-4.8 C

0 W/m

0.00 mm

10:40

-4.7 C

1018.4 hpa

89 %

0.0 km/h aus 116

1.6 km/h aus ENE

-6.2 C

-4.7 C

-4.7 C

-4.7 C

0 W/m

0.00 mm

10:45

-4.6 C

1018.8 hpa

90 %

1.6 km/h aus 116

3.2 km/h aus ENE

-6.0 C

-4.7 C

-4.6 C

-4.7 C

0 W/m

0.00 mm

10:50

-4.6 C

1018.8 hpa

90 %

1.6 km/h aus 118

3.2 km/h aus ENE

-5.9 C

-4.6 C

-4.6 C

-4.6 C

0 W/m

0.00 mm

10:55

-4.5 C

1018.8 hpa

90 %

0.0 km/h aus 117

3.2 km/h aus ENE

-5.9 C

-4.6 C

-4.5 C

-4.6 C

0 W/m

0.00 mm

11:00

-4.4 C

1019.0 hpa

90 %

0.0 km/h aus 115

3.2 km/h aus ENE

-5.8 C

-4.5 C

-4.4 C

-4.5 C

0 W/m

0.00 mm

11:05

-4.3 C

1019.0 hpa

90 %

0.0 km/h aus 115

3.2 km/h aus ENE

-5.7 C

-4.4 C

-4.3 C

-4.4 C

0 W/m

0.00 mm

11:10

-3.8 C

1019.0 hpa

90 %

0.0 km/h aus 117

1.6 km/h aus ENE

-5.2 C

-3.8 C

-3.8 C

-3.8 C

0 W/m

0.00 mm

11:15

-3.3 C

1019.0 hpa

90 %

1.6 km/h aus 117

3.2 km/h aus ENE

-4.7 C

-3.4 C

-3.3 C

-3.4 C

0 W/m

0.00 mm

11:20

-3.1 C

1019.0 hpa

89 %

0.0 km/h aus 116

1.6 km/h aus ENE

-4.6 C

-3.1 C

-3.1 C

-3.1 C

0 W/m

0.00 mm

11:25

-3.0 C

1019.0 hpa

89 %

0.0 km/h aus 116

1.6 km/h aus ENE

-4.6 C

-3.1 C

-3.0 C

-3.1 C

0 W/m

0.00 mm

11:30

-3.0 C

1019.1 hpa

88 %

0.0 km/h aus 116

3.2 km/h aus ENE

-4.7 C

-3.1 C

-3.0 C

-3.1 C

0 W/m

0.00 mm

11:35

-2.9 C

1019.1 hpa

88 %

0.0 km/h aus 117

3.2 km/h aus ENE

-4.7 C

-3.0 C

-2.9 C

-3.0 C

0 W/m

0.00 mm

11:40

-2.8 C

1019.1 hpa

88 %

0.0 km/h aus 117

1.6 km/h aus ENE

-4.5 C

-2.9 C

-2.8 C

-2.9 C

0 W/m

0.00 mm

11:45

-2.6 C

1019.1 hpa

88 %

0.0 km/h aus 117

0.0 km/h aus ---

-4.3 C

-2.7 C

-2.6 C

-2.7 C

0 W/m

0.00 mm

11:50

-2.3 C

1019.1 hpa

88 %

0.0 km/h aus 116

3.2 km/h aus ENE

-4.0 C

-2.4 C

-2.3 C

-2.4 C

0 W/m

0.00 mm

11:55

-2.2 C

1019.1 hpa

88 %

1.6 km/h aus 118

3.2 km/h aus ENE

-3.9 C

-2.3 C

-2.2 C

-2.3 C

0 W/m

0.00 mm

12:00

-1.9 C

1019.0 hpa

87 %

1.6 km/h aus 117

4.8 km/h aus ENE

-3.8 C

-2.1 C

-1.9 C

-2.1 C

0 W/m

0.00 mm

12:05

-1.7 C

1019.0 hpa

87 %

3.2 km/h aus 116

6.4 km/h aus ENE

-3.5 C

-2.5 C

-2.4 C

-1.8 C

0 W/m

0.00 mm

12:10

-1.5 C

1019.0 hpa

86 %

3.2 km/h aus 117

4.8 km/h aus ENE

-3.5 C

-2.3 C

-2.2 C

-1.6 C

0 W/m

0.00 mm

12:15

-1.4 C

1019.0 hpa

86 %

1.6 km/h aus 117

4.8 km/h aus ENE

-3.5 C

-1.6 C

-1.4 C

-1.6 C

0 W/m

0.00 mm

12:20

-1.6 C

1019.0 hpa

84 %

1.6 km/h aus 117

4.8 km/h aus ENE

-3.9 C

-1.7 C

-1.6 C

-1.7 C

0 W/m

0.00 mm

12:25

-1.4 C

1019.0 hpa

85 %

3.2 km/h aus 116

4.8 km/h aus ENE

-3.6 C

-2.3 C

-2.2 C

-1.6 C

0 W/m

0.00 mm

12:30

-1.3 C

1019.0 hpa

84 %

3.2 km/h aus 117

6.4 km/h aus ENE

-3.7 C

-2.2 C

-2.1 C

-1.4 C

0 W/m

0.00 mm

12:35

-0.9 C

1019.0 hpa

84 %

4.8 km/h aus 117

8.0 km/h aus ESE

-3.3 C

-2.7 C

-2.6 C

-1.1 C

0 W/m

0.00 mm

12:40

-1.0 C

1019.0 hpa

83 %

1.6 km/h aus 117

4.8 km/h aus SSE

-3.5 C

-1.1 C

-1.0 C

-1.1 C

0 W/m

0.00 mm

12:45

-1.0 C

1019.0 hpa

82 %

0.0 km/h aus 117

3.2 km/h aus SSE

-3.7 C

-1.2 C

-1.0 C

-1.2 C

0 W/m

0.00 mm

12:50

-1.0 C

1019.0 hpa

82 %

1.6 km/h aus 116

4.8 km/h aus SSE

-3.7 C

-1.2 C

-1.0 C

-1.2 C

0 W/m

0.00 mm

12:55

-1.0 C

1019.0 hpa

80 %

3.2 km/h aus 116

8.0 km/h aus SW

-4.0 C

-1.8 C

-1.7 C

-1.2 C

0 W/m

0.00 mm

13:00

-0.8 C

1018.9 hpa

79 %

1.6 km/h aus 118

6.4 km/h aus SW

-4.0 C

-1.0 C

-0.8 C

-1.0 C

0 W/m

0.00 mm

13:05

-0.8 C

1018.9 hpa

80 %

3.2 km/h aus 117

4.8 km/h aus SW

-3.8 C

-1.6 C

-1.4 C

-0.9 C

0 W/m

0.00 mm

13:10

-0.7 C

1018.9 hpa

80 %

1.6 km/h aus 117

4.8 km/h aus SW

-3.7 C

-0.8 C

-0.7 C

-0.8 C

0 W/m

0.00 mm

13:15

-0.6 C

1018.9 hpa

79 %

1.6 km/h aus 117

6.4 km/h aus SW

-3.8 C

-0.8 C

-0.6 C

-0.8 C

0 W/m

0.00 mm

13:20

-0.2 C

1018.9 hpa

79 %

4.8 km/h aus 117

8.0 km/h aus SW

-3.4 C

-1.9 C

-1.7 C

-0.4 C

0 W/m

0.00 mm

13:25

0.0 C

1018.9 hpa

79 %

6.4 km/h aus 117

8.0 km/h aus SW

-3.2 C

-2.3 C

-2.2 C

-0.2 C

0 W/m

0.00 mm

13:30

-0.1 C

1018.9 hpa

77 %

3.2 km/h aus 117

8.0 km/h aus SSW

-3.7 C

-0.9 C

-0.7 C

-0.3 C

0 W/m

0.00 mm

13:35

-0.4 C

1018.9 hpa

77 %

6.4 km/h aus 117

9.7 km/h aus SSW

-4.0 C

-2.9 C

-2.7 C

-0.7 C

0 W/m

0.00 mm

13:40

-0.5 C

1018.9 hpa

77 %

4.8 km/h aus 117

9.7 km/h aus SSW

-4.0 C

-2.3 C

-2.1 C

-0.7 C

0 W/m

0.00 mm

13:45

-0.3 C

1018.9 hpa

77 %

6.4 km/h aus 117

9.7 km/h aus SSW

-3.9 C

-2.8 C

-2.6 C

-0.6 C

0 W/m

0.00 mm

13:50

-0.2 C

1018.9 hpa

77 %

8.0 km/h aus 117

14.5 km/h aus SSW

-3.7 C

-3.2 C

-2.9 C

-0.4 C

0 W/m

0.00 mm

13:55

-0.1 C

1018.9 hpa

77 %

8.0 km/h aus 116

14.5 km/h aus SSW

-3.7 C

-3.1 C

-2.9 C

-0.3 C

0 W/m

0.00 mm

14:00

-0.3 C

1018.8 hpa

77 %

8.0 km/h aus 117

11.3 km/h aus SSW

-3.8 C

-3.3 C

-3.1 C

-0.5 C

0 W/m

0.00 mm

14:05

-0.4 C

1018.8 hpa

77 %

6.4 km/h aus 118

9.7 km/h aus SSW

-4.0 C

-2.9 C

-2.7 C

-0.7 C

0 W/m

0.00 mm

14:10

-0.3 C

1018.8 hpa

77 %

6.4 km/h aus 117

9.7 km/h aus SSW

-3.9 C

-2.8 C

-2.6 C

-0.6 C

0 W/m

0.00 mm

14:15

-0.3 C

1018.6 hpa

77 %

6.4 km/h aus 117

11.3 km/h aus SSW

-3.8 C

-2.7 C

-2.5 C

-0.5 C

0 W/m

0.00 mm

14:20

-0.3 C

1018.6 hpa

77 %

9.7 km/h aus 117

14.5 km/h aus S

-3.8 C

-3.8 C

-3.6 C

-0.5 C

0 W/m

0.00 mm

14:25

-0.3 C

1018.6 hpa

76 %

9.7 km/h aus 116

16.1 km/h aus S

-4.0 C

-3.8 C

-3.6 C

-0.5 C

0 W/m

0.00 mm

14:30

-0.3 C

1018.8 hpa

76 %

8.0 km/h aus 116

11.3 km/h aus S

-4.0 C

-3.3 C

-3.1 C

-0.5 C

0 W/m

0.00 mm

14:35

-0.2 C

1018.8 hpa

76 %

6.4 km/h aus 116

9.7 km/h aus S

-3.9 C

-2.7 C

-2.4 C

-0.4 C

0 W/m

0.00 mm

14:40

-0.3 C

1018.8 hpa

74 %

3.2 km/h aus 112

8.0 km/h aus S

-4.4 C

-1.1 C

-0.9 C

-0.5 C

0 W/m

0.00 mm

14:45

-0.3 C

1019.0 hpa

73 %

3.2 km/h aus 117

8.0 km/h aus S

-4.5 C

-1.1 C

-0.9 C

-0.5 C

0 W/m

0.00 mm

14:50

-0.3 C

1019.0 hpa

72 %

1.6 km/h aus 116

4.8 km/h aus S

-4.7 C

-0.6 C

-0.3 C

-0.6 C

0 W/m

0.00 mm

14:55

-0.2 C

1019.0 hpa

72 %

1.6 km/h aus 116

4.8 km/h aus S

-4.7 C

-0.5 C

-0.2 C

-0.5 C

0 W/m

0.00 mm

15:00

-0.2 C

1019.0 hpa

72 %

3.2 km/h aus 116

6.4 km/h aus S

-4.6 C

-1.1 C

-0.8 C

-0.4 C

0 W/m

0.00 mm

15:05

-0.2 C

1019.0 hpa

71 %

3.2 km/h aus 117

8.0 km/h aus S

-4.8 C

-1.1 C

-0.8 C

-0.4 C

0 W/m

0.00 mm

15:10

-0.2 C

1019.0 hpa

71 %

3.2 km/h aus 117

6.4 km/h aus S

-4.8 C

-1.1 C

-0.8 C

-0.5 C

0 W/m

0.00 mm

15:15

-0.3 C

1019.3 hpa

71 %

3.2 km/h aus 114

6.4 km/h aus S

-4.9 C

-1.2 C

-0.9 C

-0.6 C

0 W/m

0.00 mm

15:20

-0.4 C

1019.3 hpa

71 %

1.6 km/h aus 115

4.8 km/h aus S

-5.1 C

-0.7 C

-0.4 C

-0.7 C

0 W/m

0.00 mm

15:25

-0.8 C

1019.3 hpa

73 %

3.2 km/h aus 115

6.4 km/h aus S

-5.0 C

-1.7 C

-1.4 C

-1.0 C

0 W/m

0.00 mm

15:30

-1.1 C

1019.5 hpa

76 %

1.6 km/h aus 117

4.8 km/h aus S

-4.8 C

-1.3 C

-1.1 C

-1.3 C

0 W/m

0.00 mm

15:35

-1.3 C

1019.5 hpa

77 %

0.0 km/h aus 117

3.2 km/h aus S

-4.8 C

-1.5 C

-1.3 C

-1.5 C

0 W/m

0.00 mm

15:40

-1.5 C

1019.5 hpa

78 %

0.0 km/h aus 105

3.2 km/h aus S

-4.8 C

-1.7 C

-1.5 C

-1.7 C

0 W/m

0.00 mm

15:45

-1.6 C

1019.9 hpa

78 %

1.6 km/h aus 106

3.2 km/h aus S

-4.9 C

-1.7 C

-1.6 C

-1.7 C

0 W/m

0.00 mm

15:50

-1.7 C

1019.9 hpa

78 %

1.6 km/h aus 107

3.2 km/h aus S

-5.0 C

-1.8 C

-1.7 C

-1.8 C

0 W/m

0.00 mm

15:55

-1.8 C

1019.9 hpa

79 %

1.6 km/h aus 108

4.8 km/h aus S

-4.9 C

-1.9 C

-1.8 C

-1.9 C

0 W/m

0.00 mm

16:00

-1.8 C

1020.2 hpa

80 %

1.6 km/h aus 117

4.8 km/h aus S

-4.8 C

-1.9 C

-1.8 C

-1.9 C

0 W/m

0.00 mm

16:05

-1.6 C

1020.2 hpa

79 %

1.6 km/h aus 115

4.8 km/h aus S

-4.7 C

-1.7 C

-1.6 C

-1.7 C

0 W/m

0.00 mm

16:10

-1.6 C

1020.2 hpa

78 %

1.6 km/h aus 114

6.4 km/h aus S

-4.9 C

-1.7 C

-1.6 C

-1.7 C

0 W/m

0.00 mm

16:15

-1.7 C

1020.1 hpa

78 %

3.2 km/h aus 118

6.4 km/h aus S

-5.0 C

-2.6 C

-2.4 C

-1.8 C

0 W/m

0.00 mm

16:20

-1.7 C

1020.1 hpa

79 %

3.2 km/h aus 117

6.4 km/h aus S

-4.9 C

-2.6 C

-2.4 C

-1.9 C

0 W/m

0.00 mm

16:25

-1.7 C

1020.1 hpa

79 %

3.2 km/h aus 116

6.4 km/h aus S

-4.8 C

-2.6 C

-2.4 C

-1.8 C

0 W/m

0.00 mm

16:30

-1.5 C

1020.2 hpa

79 %

3.2 km/h aus 117

6.4 km/h aus S

-4.7 C

-2.4 C

-2.2 C

-1.7 C

0 W/m

0.00 mm

16:35

-1.4 C

1020.2 hpa

78 %

3.2 km/h aus 116

8.0 km/h aus S

-4.8 C

-2.3 C

-2.2 C

-1.6 C

0 W/m

0.00 mm

16:40

-1.4 C

1020.2 hpa

78 %

1.6 km/h aus 116

4.8 km/h aus S

-4.7 C

-1.6 C

-1.4 C

-1.6 C

0 W/m

0.00 mm

16:45

-1.3 C

1020.2 hpa

78 %

3.2 km/h aus 116

6.4 km/h aus S

-4.7 C

-2.2 C

-2.1 C

-1.5 C

0 W/m

0.00 mm

16:50

-1.3 C

1020.2 hpa

78 %

4.8 km/h aus 117

11.3 km/h aus S

-4.7 C

-3.2 C

-3.0 C

-1.5 C

0 W/m

0.00 mm

16:55

-1.3 C

1020.2 hpa

78 %

6.4 km/h aus 116

14.5 km/h aus SSW

-4.6 C

-3.8 C

-3.7 C

-1.4 C

0 W/m

0.00 mm

17:00

-1.3 C

1020.3 hpa

77 %

8.0 km/h aus 117

11.3 km/h aus SSW

-4.8 C

-4.4 C

-4.2 C

-1.5 C

0 W/m

0.00 mm

17:05

-1.3 C

1020.3 hpa

77 %

6.4 km/h aus 116

11.3 km/h aus SSW

-4.8 C

-3.9 C

-3.7 C

-1.5 C

0 W/m

0.00 mm

17:10

-1.3 C

1020.3 hpa

77 %

6.4 km/h aus 117

14.5 km/h aus SW

-4.8 C

-3.9 C

-3.7 C

-1.6 C

0 W/m

0.00 mm

17:15

-1.3 C

1020.5 hpa

77 %

6.4 km/h aus 116

9.7 km/h aus SW

-4.8 C

-3.9 C

-3.7 C

-1.6 C

0 W/m

0.00 mm

17:20

-1.4 C

1020.5 hpa

76 %

3.2 km/h aus 117

8.0 km/h aus SW

-5.1 C

-2.3 C

-2.1 C

-1.6 C

0 W/m

0.00 mm

17:25

-1.4 C

1020.5 hpa

76 %

1.6 km/h aus 117

6.4 km/h aus SW

-5.1 C

-1.6 C

-1.4 C

-1.6 C

0 W/m

0.00 mm

17:30

-1.4 C

1020.5 hpa

76 %

1.6 km/h aus 116

6.4 km/h aus SW

-5.1 C

-1.7 C

-1.4 C

-1.7 C

0 W/m

0.00 mm

17:35

-1.4 C

1020.5 hpa

76 %

3.2 km/h aus 116

6.4 km/h aus SW

-5.1 C

-2.4 C

-2.2 C

-1.7 C

0 W/m

0.00 mm

17:40

-1.4 C

1020.5 hpa

76 %

1.6 km/h aus 116

6.4 km/h aus SW

-5.1 C

-1.7 C

-1.4 C

-1.7 C

0 W/m

0.00 mm

17:45

-1.4 C

1020.6 hpa

76 %

1.6 km/h aus 117

4.8 km/h aus SW

-5.1 C

-1.7 C

-1.4 C

-1.7 C

0 W/m

0.00 mm

17:50

-1.5 C

1020.6 hpa

76 %

3.2 km/h aus 117

6.4 km/h aus SW

-5.2 C

-2.4 C

-2.2 C

-1.7 C

0 W/m

0.00 mm

17:55

-1.5 C

1020.6 hpa

76 %

3.2 km/h aus 116

8.0 km/h aus SW

-5.2 C

-2.4 C

-2.2 C

-1.7 C

0 W/m

0.00 mm

18:00

-1.5 C

1020.6 hpa

77 %

3.2 km/h aus 116

8.0 km/h aus SW

-5.0 C

-2.4 C

-2.2 C

-1.7 C

0 W/m

0.00 mm

18:05

-1.5 C

1020.6 hpa

77 %

4.8 km/h aus 114

8.0 km/h aus SW

-5.0 C

-3.4 C

-3.2 C

-1.7 C

0 W/m

0.00 mm

18:10

-1.5 C

1020.6 hpa

77 %

4.8 km/h aus 117

9.7 km/h aus SW

-5.0 C

-3.4 C

-3.2 C

-1.7 C

0 W/m

0.00 mm

18:15

-1.4 C

1020.7 hpa

77 %

4.8 km/h aus 116

14.5 km/h aus SW

-5.0 C

-3.3 C

-3.1 C

-1.7 C

0 W/m

0.00 mm

18:20

-1.4 C

1020.7 hpa

77 %

4.8 km/h aus 116

9.7 km/h aus SW

-5.0 C

-3.3 C

-3.1 C

-1.7 C

0 W/m

0.00 mm

18:25

-1.4 C

1020.7 hpa

77 %

3.2 km/h aus 116

6.4 km/h aus SW

-5.0 C

-2.4 C

-2.2 C

-1.7 C

0 W/m

0.00 mm

18:30

-1.4 C

1020.9 hpa

77 %

1.6 km/h aus 117

4.8 km/h aus SW

-5.0 C

-1.7 C

-1.4 C

-1.7 C

0 W/m

0.00 mm

18:35

-1.4 C

1020.9 hpa

77 %

3.2 km/h aus 117

4.8 km/h aus SW

-5.0 C

-2.4 C

-2.2 C

-1.7 C

0 W/m

0.00 mm

18:40

-1.4 C

1020.9 hpa

77 %

1.6 km/h aus 115

4.8 km/h aus SW

-5.0 C

-1.7 C

-1.4 C

-1.7 C

0 W/m

0.00 mm

18:45

-1.4 C

1021.0 hpa

78 %

3.2 km/h aus 116

8.0 km/h aus SW

-4.8 C

-2.3 C

-2.2 C

-1.6 C

0 W/m

0.00 mm

18:50

-1.5 C

1021.0 hpa

78 %

1.6 km/h aus 117

4.8 km/h aus SW

-4.8 C

-1.7 C

-1.5 C

-1.7 C

0 W/m

0.00 mm

18:55

-1.6 C

1021.0 hpa

78 %

1.6 km/h aus 117

4.8 km/h aus SW

-4.9 C

-1.7 C

-1.6 C

-1.7 C

0 W/m

0.00 mm

19:00

-1.6 C

1021.0 hpa

78 %

1.6 km/h aus 117

3.2 km/h aus SW

-4.9 C

-1.7 C

-1.6 C

-1.7 C

0 W/m

0.00 mm

19:05

-1.7 C

1021.0 hpa

78 %

1.6 km/h aus 116

4.8 km/h aus SW

-5.0 C

-1.8 C

-1.7 C

-1.8 C

0 W/m

0.00 mm

19:10

-1.7 C

1021.0 hpa

78 %

1.6 km/h aus 117

4.8 km/h aus SW

-5.0 C

-1.8 C

-1.7 C

-1.8 C

0 W/m

0.00 mm

19:15

-1.7 C

1021.2 hpa

78 %

1.6 km/h aus 117

6.4 km/h aus SW

-5.1 C

-1.9 C

-1.7 C

-1.9 C

0 W/m

0.00 mm

19:20

-1.8 C

1021.2 hpa

78 %

4.8 km/h aus 117

6.4 km/h aus SW

-5.1 C

-3.7 C

-3.5 C

-1.9 C

0 W/m

0.00 mm

19:25

-1.8 C

1021.2 hpa

78 %

3.2 km/h aus 117

6.4 km/h aus SW

-5.1 C

-2.7 C

-2.5 C

-1.9 C

0 W/m

0.00 mm

19:30

-1.8 C

1021.1 hpa

78 %

4.8 km/h aus 117

6.4 km/h aus SW

-5.2 C

-3.7 C

-3.6 C

-2.0 C

0 W/m

0.00 mm

19:35

-1.8 C

1021.1 hpa

79 %

6.4 km/h aus 117

9.7 km/h aus SW

-5.0 C

-4.4 C

-4.3 C

-2.0 C

0 W/m

0.00 mm

19:40

-1.9 C

1021.1 hpa

79 %

6.4 km/h aus 116

14.5 km/h aus SSW

-5.0 C

-4.6 C

-4.4 C

-2.1 C

0 W/m

0.00 mm

19:45

-1.9 C

1021.0 hpa

79 %

9.7 km/h aus 115

14.5 km/h aus SSW

-5.0 C

-5.6 C

-5.4 C

-2.1 C

0 W/m

0.00 mm

19:50

-1.9 C

1021.0 hpa

80 %

14.5 km/h aus 115

19.3 km/h aus S

-4.9 C

-6.8 C

-6.6 C

-2.1 C

0 W/m

0.00 mm

19:55

-1.9 C

1021.0 hpa

80 %

9.7 km/h aus 117

17.7 km/h aus S

-4.9 C

-5.6 C

-5.4 C

-2.1 C

0 W/m

0.00 mm

20:00

-1.9 C

1021.0 hpa

80 %

6.4 km/h aus 117

16.1 km/h aus S

-4.9 C

-4.6 C

-4.4 C

-2.1 C

0 W/m

0.00 mm

20:05

-1.8 C

1021.0 hpa

81 %

4.8 km/h aus 116

9.7 km/h aus S

-4.7 C

-3.7 C

-3.6 C

-2.0 C

0 W/m

0.00 mm

20:10

-1.8 C

1021.0 hpa

81 %

4.8 km/h aus 117

11.3 km/h aus S

-4.7 C

-3.7 C

-3.6 C

-2.0 C

0 W/m

0.00 mm

20:15

-1.8 C

1021.0 hpa

81 %

4.8 km/h aus 115

14.5 km/h aus S

-4.7 C

-3.7 C

-3.6 C

-2.0 C

0 W/m

0.00 mm

20:20

-1.8 C

1021.0 hpa

81 %

6.4 km/h aus 117

11.3 km/h aus S

-4.6 C

-4.4 C

-4.2 C

-1.9 C

0 W/m

0.00 mm

20:25

-1.8 C

1021.0 hpa

81 %

4.8 km/h aus 116

9.7 km/h aus S

-4.6 C

-3.7 C

-3.5 C

-1.9 C

0 W/m

0.00 mm

20:30

-1.8 C

1021.0 hpa

81 %

6.4 km/h aus 118

14.5 km/h aus S

-4.6 C

-4.4 C

-4.2 C

-1.9 C

0 W/m

0.00 mm

20:35

-1.7 C

1021.0 hpa

82 %

6.4 km/h aus 116

16.1 km/h aus S

-4.4 C

-4.3 C

-4.2 C

-1.9 C

0 W/m

0.00 mm

20:40

-1.7 C

1021.0 hpa

82 %

4.8 km/h aus 117

11.3 km/h aus S

-4.4 C

-3.6 C

-3.4 C

-1.9 C

0 W/m

0.00 mm

20:45

-1.7 C

1021.0 hpa

82 %

4.8 km/h aus 116

8.0 km/h aus S

-4.4 C

-3.6 C

-3.4 C

-1.9 C

0 W/m

0.00 mm

20:50

-1.7 C

1021.0 hpa

82 %

4.8 km/h aus 116

11.3 km/h aus S

-4.4 C

-3.6 C

-3.4 C

-1.9 C

0 W/m

0.00 mm

20:55

-1.7 C

1021.0 hpa

82 %

3.2 km/h aus 117

8.0 km/h aus SSW

-4.3 C

-2.6 C

-2.4 C

-1.8 C

0 W/m

0.00 mm

21:00

-1.7 C

1020.9 hpa

82 %

4.8 km/h aus 117

6.4 km/h aus SSW

-4.3 C

-3.6 C

-3.4 C

-1.8 C

0 W/m

0.00 mm

21:05

-1.7 C

1020.9 hpa

82 %

4.8 km/h aus 116

9.7 km/h aus SSW

-4.3 C

-3.6 C

-3.4 C

-1.8 C

0 W/m

0.00 mm

21:10

-1.7 C

1020.9 hpa

82 %

4.8 km/h aus 117

6.4 km/h aus SSW

-4.3 C

-3.6 C

-3.4 C

-1.8 C

0 W/m

0.00 mm

21:15

-1.7 C

1020.7 hpa

82 %

3.2 km/h aus 117

6.4 km/h aus SSW

-4.4 C

-2.6 C

-2.4 C

-1.9 C

0 W/m

0.00 mm

21:20

-1.7 C

1020.7 hpa

82 %

1.6 km/h aus 117

4.8 km/h aus SSW

-4.4 C

-1.9 C

-1.7 C

-1.9 C

0 W/m

0.00 mm

21:25

-1.7 C

1020.7 hpa

82 %

4.8 km/h aus 116

6.4 km/h aus SSW

-4.4 C

-3.6 C

-3.4 C

-1.9 C

0 W/m

0.00 mm

21:30

-1.8 C

1020.6 hpa

82 %

6.4 km/h aus 115

9.7 km/h aus SSW

-4.4 C

-4.4 C

-4.2 C

-1.9 C

0 W/m

0.00 mm

21:35

-1.8 C

1020.6 hpa

82 %

9.7 km/h aus 118

16.1 km/h aus SSW

-4.5 C

-5.6 C

-5.4 C

-2.0 C

0 W/m

0.00 mm

21:40

-1.9 C

1020.6 hpa

82 %

11.3 km/h aus 117

17.7 km/h aus S

-4.6 C

-6.1 C

-5.9 C

-2.1 C

0 W/m

0.00 mm

21:45

-1.9 C

1020.5 hpa

82 %

9.7 km/h aus 117

17.7 km/h aus SSW

-4.6 C

-5.6 C

-5.4 C

-2.1 C

0 W/m

0.00 mm

21:50

-1.9 C

1020.5 hpa

83 %

11.3 km/h aus 116

16.1 km/h aus S

-4.4 C

-6.0 C

-5.9 C

-2.0 C

0 W/m

0.00 mm

21:55

-1.8 C

1020.5 hpa

83 %

12.9 km/h aus 117

29.0 km/h aus S

-4.3 C

-6.3 C

-6.2 C

-1.9 C

0 W/m

0.00 mm

22:00

-1.8 C

1020.5 hpa

83 %

12.9 km/h aus 117

19.3 km/h aus S

-4.3 C

-6.3 C

-6.2 C

-1.9 C

0 W/m

0.00 mm

22:05

-1.8 C

1020.5 hpa

83 %

12.9 km/h aus 117

20.9 km/h aus S

-4.3 C

-6.3 C

-6.2 C

-1.9 C

0 W/m

0.00 mm

22:10

-1.8 C

1020.5 hpa

83 %

12.9 km/h aus 117

20.9 km/h aus S

-4.3 C

-6.3 C

-6.2 C

-1.9 C

0 W/m

0.00 mm

22:15

-1.8 C

1020.4 hpa

84 %

14.5 km/h aus 116

25.7 km/h aus S

-4.1 C

-6.6 C

-6.5 C

-1.9 C

0 W/m

0.00 mm

22:20

-1.7 C

1020.4 hpa

84 %

11.3 km/h aus 117

22.5 km/h aus S

-4.1 C

-5.8 C

-5.7 C

-1.8 C

0 W/m

0.00 mm

22:25

-1.7 C

1020.4 hpa

84 %

11.3 km/h aus 117

19.3 km/h aus S

-4.1 C

-5.8 C

-5.7 C

-1.8 C

0 W/m

0.00 mm

22:30

-1.7 C

1020.5 hpa

84 %

12.9 km/h aus 116

20.9 km/h aus SSW

-4.0 C

-6.1 C

-6.0 C

-1.8 C

0 W/m

0.00 mm

22:35

-1.7 C

1020.5 hpa

84 %

9.7 km/h aus 116

17.7 km/h aus SSW

-4.0 C

-5.3 C

-5.2 C

-1.8 C

0 W/m

0.00 mm

22:40

-1.7 C

1020.5 hpa

84 %

8.0 km/h aus 118

16.1 km/h aus S

-4.0 C

-4.8 C

-4.7 C

-1.8 C

0 W/m

0.00 mm

22:45

-1.7 C

1020.3 hpa

84 %

6.4 km/h aus 117

9.7 km/h aus S

-4.0 C

-4.2 C

-4.1 C

-1.8 C

0 W/m

0.00 mm

22:50

-1.7 C

1020.3 hpa

84 %

8.0 km/h aus 116

19.3 km/h aus S

-4.0 C

-4.8 C

-4.7 C

-1.8 C

0 W/m

0.00 mm

22:55

-1.7 C

1020.3 hpa

84 %

8.0 km/h aus 117

14.5 km/h aus S

-4.0 C

-4.8 C

-4.7 C

-1.8 C

0 W/m

0.00 mm

23:00

-1.7 C

1020.1 hpa

84 %

6.4 km/h aus 116

14.5 km/h aus SSW

-4.1 C

-4.3 C

-4.2 C

-1.8 C

0 W/m

0.00 mm

23:05

-1.7 C

1020.1 hpa

84 %

6.4 km/h aus 116

11.3 km/h aus SSW

-4.0 C

-4.2 C

-4.1 C

-1.8 C

0 W/m

0.00 mm

23:10

-1.7 C

1020.1 hpa

84 %

8.0 km/h aus 116

14.5 km/h aus SSW

-4.0 C

-4.8 C

-4.7 C

-1.8 C

0 W/m

0.00 mm

23:15

-1.7 C

1019.9 hpa

84 %

11.3 km/h aus 116

17.7 km/h aus S

-4.0 C

-5.7 C

-5.6 C

-1.8 C

0 W/m

0.00 mm

23:20

-1.7 C

1019.9 hpa

84 %

11.3 km/h aus 116

20.9 km/h aus S

-4.0 C

-5.7 C

-5.6 C

-1.8 C

0 W/m

0.00 mm

23:25

-1.7 C

1019.9 hpa

84 %

9.7 km/h aus 115

19.3 km/h aus SSW

-4.0 C

-5.3 C

-5.2 C

-1.8 C

0 W/m

0.00 mm

23:30

-1.7 C

1019.9 hpa

84 %

8.0 km/h aus 117

14.5 km/h aus SSW

-4.0 C

-4.8 C

-4.7 C

-1.8 C

0 W/m

0.00 mm

23:35

-1.7 C

1019.9 hpa

84 %

9.7 km/h aus 116

17.7 km/h aus S

-4.0 C

-5.3 C

-5.2 C

-1.8 C

0 W/m

0.00 mm

23:40

-1.7 C

1019.9 hpa

84 %

14.5 km/h aus 117

24.1 km/h aus S

-4.0 C

-6.4 C

-6.3 C

-1.8 C

0 W/m

0.00 mm

23:45

-1.7 C

1019.5 hpa

84 %

16.1 km/h aus 117

24.1 km/h aus S

-4.0 C

-6.8 C

-6.7 C

-1.8 C

0 W/m

0.00 mm

23:50

-1.6 C

1019.5 hpa

84 %

14.5 km/h aus 115

22.5 km/h aus S

-4.0 C

-6.4 C

-6.3 C

-1.7 C

0 W/m

0.00 mm

23:55

-1.6 C

1019.5 hpa

85 %

11.3 km/h aus 117

20.9 km/h aus SSW

-3.8 C

-5.7 C

-5.6 C

-1.7 C

0 W/m

0.00 mm